Location: Étavigny
(49.1201°N, 2.9800°E)
Time: 18:27:12
(UTC+00:00)

ATLAS CENTAUR R/B - Pass Details

Date: 28 January 2023
Orbit: 450 x 653 km, 64.7° (Epoch: 19 March)

Event Time Altitude Azimuth Distance (km) Brightness Sun altitude
Rises 17:33:45 0° 185° (S) 2,981 5.4 -9.3°
Reaches altitude 10° 17:36:20 10° 173° (S) 2,068 4.4 -9.7°
Maximum altitude 17:40:17 27° 117° (ESE) 1,248 2.7 -10.3°
Enters shadow 17:43:15 15° 67° (ENE) 1,743 3.2 -10.8°
